• In France
  • List of Countries
  • For 7 days
  • Water Temperature
  • Satellite Maps
  • Weather Map
  • Weather Widgets
  • user-avatar
    Login

    Hourly Weather La Massana

    Today, 19 July, Thursday

    Time Temperature Precipitation Wind Pressure Humidity
    00:00 +11°C° 0 mm 1 mps 613 mmHg 80%
    01:00 +11°C° 0 mm 1 mps 613 mmHg 79%
    02:00 +11°C° 0 mm 1 mps 612 mmHg 79%
    03:00 +11°C° 0 mm 1 mps 612 mmHg 78%
    04:00 +11°C° 0 mm 1 mps 613 mmHg 76%
    05:00 +12°C° 0 mm 1 mps 613 mmHg 74%
    06:00 +13°C° 0 mm 1 mps 613 mmHg 72%
    07:00 +15°C° 0 mm 1 mps 614 mmHg 62%
    08:00 +19°C° 0 mm 1 mps 616 mmHg 53%
    09:00 +21°C° 0 mm 1 mps 617 mmHg 43%
    10:00 +21°C° 0 mm 2 mps 617 mmHg 41%
    11:00 +23°C° 0 mm 2 mps 617 mmHg 38%
    12:00 +24°C° 0 mm 3 mps 617 mmHg 35%
    13:00 +24°C° 0 mm 3 mps 617 mmHg 35%
    14:00 +24°C° 0 mm 3 mps 617 mmHg 35%
    15:00 +24°C° 0 mm 3 mps 616 mmHg 35%
    16:00 +22°C° 0 mm 3 mps 616 mmHg 41%
    17:00 +21°C° 0 mm 2 mps 615 mmHg 47%
    18:00 +20°C° 0 mm 2 mps 615 mmHg 53%
    19:00 +18°C° 0 mm 2 mps 614 mmHg 60%
    20:00 +16°C° 0 mm 1 mps 614 mmHg 67%
    21:00 +14°C° 0 mm 1 mps 613 mmHg 73%
    22:00 +13°C° 0 mm 1 mps 613 mmHg 75%
    23:00 +13°C° 0 mm 1 mps 613 mmHg 76%

    Tomorrow, 20 July, Friday

    Time Temperature Precipitation Wind Pressure Humidity
    00:00 +12°C° 0 mm 1 mps 613 mmHg 77%
    01:00 +12°C° 0 mm 1 mps 612 mmHg 76%
    02:00 +11°C° 0 mm 1 mps 612 mmHg 75%
    03:00 +11°C° 0 mm 1 mps 612 mmHg 74%
    04:00 +12°C° 0 mm 1 mps 612 mmHg 72%
    05:00 +12°C° 0 mm 1 mps 612 mmHg 70%
    06:00 +13°C° 0 mm 1 mps 613 mmHg 68%
    07:00 +15°C° 0 mm 1 mps 614 mmHg 62%
    08:00 +17°C° 0 mm 2 mps 615 mmHg 56%
    09:00 +19°C° 0 mm 2 mps 615 mmHg 50%
    10:00 +19°C° 0 mm 3 mps 615 mmHg 47%
    11:00 +20°C° 0 mm 3 mps 616 mmHg 45%
    12:00 +21°C° 0 mm 4 mps 616 mmHg 43%
    13:00 +21°C° 0.1 mm 4 mps 615 mmHg 46%
    14:00 +20°C° 0.1 mm 4 mps 615 mmHg 48%
    15:00 +20°C° 0.1 mm 4 mps 615 mmHg 51%
    16:00 +19°C° 0.5 mm 3 mps 614 mmHg 56%
    17:00 +18°C° 0.5 mm 3 mps 614 mmHg 62%
    18:00 +17°C° 0.5 mm 2 mps 613 mmHg 67%
    19:00 +15°C° 0.7 mm 2 mps 613 mmHg 75%
    20:00 +13°C° 0.7 mm 2 mps 612 mmHg 82%
    21:00 +10°C° 0.7 mm 2 mps 612 mmHg 89%
    22:00 +10°C° 0.7 mm 2 mps 612 mmHg 90%
    23:00 +10°C° 0.7 mm 2 mps 612 mmHg 91%

    Day after tomorrow, 21 July, Saturday

    Time Temperature Precipitation Wind Pressure Humidity
    00:00 +9°C° 0.7 mm 2 mps 612 mmHg 92%
    01:00 +9°C° 0.3 mm 2 mps 612 mmHg 93%
    02:00 +9°C° 0.3 mm 2 mps 611 mmHg 93%
    03:00 +8°C° 0.3 mm 2 mps 611 mmHg 93%
    04:00 +9°C° 0 mm 2 mps 611 mmHg 92%
    05:00 +9°C° 0 mm 2 mps 612 mmHg 92%
    06:00 +9°C° 0 mm 2 mps 612 mmHg 91%
    07:00 +11°C° 0.1 mm 1 mps 612 mmHg 86%
    08:00 +12°C° 0.1 mm 1 mps 613 mmHg 81%
    09:00 +14°C° 0.1 mm 1 mps 614 mmHg 76%
    10:00 +14°C° 0.3 mm 1 mps 614 mmHg 74%
    11:00 +14°C° 0.3 mm 1 mps 614 mmHg 72%
    12:00 +15°C° 0.3 mm 2 mps 614 mmHg 70%
    13:00 +15°C° 0.3 mm 2 mps 614 mmHg 69%
    14:00 +15°C° 0.3 mm 2 mps 614 mmHg 67%
    15:00 +16°C° 0.3 mm 2 mps 614 mmHg 66%
    16:00 +15°C° 0.2 mm 2 mps 614 mmHg 69%
    17:00 +14°C° 0.2 mm 2 mps 613 mmHg 73%
    18:00 +14°C° 0.2 mm 2 mps 613 mmHg 76%
    19:00 +13°C° 0.1 mm 2 mps 613 mmHg 80%
    20:00 +12°C° 0.1 mm 2 mps 613 mmHg 85%
    21:00 +10°C° 0.1 mm 2 mps 613 mmHg 89%
    22:00 +9°C° 0.1 mm 2 mps 613 mmHg 90%
    23:00 +10°C° 0.1 mm 1 mps 613 mmHg 90%

    22 July, Sunday

    Time Temperature Precipitation Wind Pressure Humidity
    00:00 +10°C° 0.1 mm 1 mps 613 mmHg 91%
    01:00 +9°C° 0 mm 1 mps 613 mmHg 92%
    02:00 +9°C° 0 mm 1 mps 612 mmHg 92%
    03:00 +9°C° 0 mm 1 mps 612 mmHg 92%
    04:00 +9°C° 0 mm 1 mps 612 mmHg 91%
    05:00 +9°C° 0 mm 1 mps 612 mmHg 90%
    06:00 +9°C° 0 mm 1 mps 613 mmHg 88%
    07:00 +11°C° 0 mm 1 mps 613 mmHg 79%
    08:00 +13°C° 0 mm 1 mps 614 mmHg 70%
    09:00 +15°C° 0 mm 1 mps 615 mmHg 61%
    10:00 +16°C° 0 mm 1 mps 615 mmHg 56%
    11:00 +17°C° 0 mm 2 mps 616 mmHg 50%
    12:00 +19°C° 0 mm 2 mps 616 mmHg 45%
    13:00 +19°C° 0 mm 2 mps 616 mmHg 44%
    14:00 +19°C° 0 mm 2 mps 616 mmHg 44%
    15:00 +19°C° 0 mm 2 mps 615 mmHg 43%
    16:00 +18°C° 0 mm 2 mps 615 mmHg 48%
    17:00 +17°C° 0 mm 2 mps 615 mmHg 53%
    18:00 +16°C° 0 mm 2 mps 615 mmHg 57%
    19:00 +14°C° 0 mm 2 mps 614 mmHg 65%
    20:00 +12°C° 0 mm 2 mps 614 mmHg 73%
    21:00 +9°C° 0 mm 2 mps 613 mmHg 81%
    22:00 +9°C° 0 mm 2 mps 613 mmHg 82%
    23:00 +9°C° 0 mm 2 mps 613 mmHg 83%

    23 July, Monday

    Time Temperature Precipitation Wind Pressure Humidity
    00:00 +8°C° 0 mm 2 mps 613 mmHg 83%
    01:00 +8°C° 0 mm 2 mps 613 mmHg 83%
    02:00 +8°C° 0 mm 2 mps 612 mmHg 82%
    03:00 +8°C° 0 mm 2 mps 612 mmHg 81%
    04:00 +8°C° 0 mm 2 mps 612 mmHg 79%
    05:00 +10°C° 0 mm 1 mps 613 mmHg 76%
    06:00 +11°C° 0 mm 1 mps 613 mmHg 74%
    07:00 +13°C° 0 mm 1 mps 614 mmHg 66%
    08:00 +16°C° 0 mm 1 mps 615 mmHg 58%
    09:00 +19°C° 0 mm 1 mps 616 mmHg 49%
    10:00 +21°C° 0 mm 1 mps 616 mmHg 46%
    11:00 +22°C° 0 mm 1 mps 616 mmHg 43%
    12:00 +23°C° 0 mm 2 mps 617 mmHg 40%
    13:00 +23°C° 0 mm 2 mps 616 mmHg 41%
    14:00 +23°C° 0 mm 2 mps 616 mmHg 41%
    15:00 +23°C° 0 mm 2 mps 616 mmHg 42%
    16:00 +21°C° 0 mm 2 mps 615 mmHg 46%
    17:00 +21°C° 0 mm 1 mps 615 mmHg 50%
    18:00 +20°C° 0 mm 1 mps 615 mmHg 54%
    19:00 +18°C° 0 mm 1 mps 614 mmHg 61%
    20:00 +15°C° 0 mm 1 mps 614 mmHg 68%
    21:00 +13°C° 0 mm 1 mps 613 mmHg 75%
    22:00 +13°C° 0 mm 1 mps 613 mmHg 76%
    23:00 +12°C° 0 mm 1 mps 613 mmHg 77%

    24 July, Tuesday

    Time Temperature Precipitation Wind Pressure Humidity
    00:00 +12°C° 0 mm 1 mps 612 mmHg 78%
    01:00 +12°C° 0 mm 1 mps 612 mmHg 77%
    02:00 +12°C° 0 mm 1 mps 612 mmHg 77%
    03:00 +11°C° 0 mm 1 mps 612 mmHg 76%
    04:00 +12°C° 0 mm 1 mps 612 mmHg 74%
    05:00 +13°C° 0 mm 1 mps 613 mmHg 72%
    06:00 +14°C° 0 mm 1 mps 613 mmHg 70%
    07:00 +16°C° 0 mm 1 mps 614 mmHg 61%
    08:00 +20°C° 0 mm 1 mps 615 mmHg 53%
    09:00 +23°C° 0 mm 1 mps 616 mmHg 45%
    10:00 +23°C° 0 mm 1 mps 616 mmHg 43%
    11:00 +24°C° 0 mm 2 mps 617 mmHg 40%
    12:00 +25°C° 0 mm 2 mps 617 mmHg 38%
    13:00 +25°C° 0 mm 2 mps 616 mmHg 39%
    14:00 +25°C° 0 mm 2 mps 616 mmHg 40%
    15:00 +25°C° 0 mm 2 mps 616 mmHg 42%
    16:00 +24°C° 0 mm 2 mps 615 mmHg 47%
    17:00 +22°C° 0 mm 1 mps 615 mmHg 52%
    18:00 +21°C° 0 mm 1 mps 615 mmHg 58%
    19:00 +19°C° 0.2 mm 1 mps 614 mmHg 65%
    20:00 +16°C° 0.2 mm 1 mps 614 mmHg 71%
    21:00 +14°C° 0.2 mm 1 mps 614 mmHg 78%
    22:00 +14°C° 0.3 mm 1 mps 613 mmHg 79%
    23:00 +13°C° 0.3 mm 1 mps 613 mmHg 80%
    Show more